Weather History for Elmira, NY

Change the Weather History Date:

Friday, January 24, 2014

  Actual Average Record
Temperature  
Mean Temperature 5 °F -  
Max Temperature 19 °F 36 °F 60 °F (1967)
Min Temperature -8 °F 17 °F -17 °F (2011)
Degree Days  
Heating Degree Days 60    
Moisture  
Dew Point -6 °F    
Average Humidity 52    
Maximum Humidity 75    
Minimum Humidity 33    
Precipitation  
Precipitation 0.00 in - - ()
Sea Level Pressure  
Sea Level Pressure 30.20 in    
Wind  
Wind Speed 9 mph (WSW)    
Max Wind Speed 18 mph    
Max Gust Speed 25 mph    
Visibility 10 miles    
Events      
Averages and records for this station are not official NWS values.
T = Trace of Precipitation, MM = Missing Value Source: NWS Daily Summary

Daily Weather History Graph

Daily Weather History Graph

Search for Another Location

Airport:

Trip Planner

Search our weather history database for the weather conditions in past years. The results will help you decide how hot, cold, wet, or windy it might be!

Date:

Astronomy

Jan. 24, 2014 Rise Set
Actual Time 7:27 AM EST 5:11 PM EST
Civil Twilight 6:57 AM EST 5:42 PM EST
Nautical Twilight 6:23 AM EST 6:16 PM EST
Astronomical Twilight 5:50 AM EST 6:49 PM EST
Moon 12:51 AM EST (1/24) 11:30 AM EST (1/24)
Length of Visible Light 10h 44m
Length of Day
9h 43m
Last Quarter, 45% of the Moon is Illuminated
Jan 24
Last Quarter
Jan 30
New
Feb 6
First Quarter
Feb 14
Full
Feb 22
Last Quarter

Hourly Weather History & Observations

Time (EST) Temp. Windchill Dew Point Humidity Pressure Visibility Wind Dir Wind Speed Gust Speed Precip Events Conditions
12:53 AM 3.9 °F -5.3 °F -4.0 °F 70% 30.33 in 9.0 mi West 4.6 mph - N/A   Overcast
1:53 AM 5.0 °F -6.9 °F -5.1 °F 63% 30.34 in 10.0 mi West 6.9 mph - N/A   Mostly Cloudy
2:04 AM 3.2 °F -4.2 °F -5.8 °F 66% 30.28 in 10.0 mi West 3.5 mph - N/A   Scattered Clouds
2:53 AM 3.0 °F -4.4 °F -7.1 °F 63% 30.37 in 10.0 mi West 3.5 mph - N/A   Clear
3:53 AM -0.0 °F -7.9 °F -8.0 °F 69% 30.38 in 10.0 mi West 3.5 mph - N/A   Clear
4:53 AM -0.0 °F -11.6 °F -9.0 °F 66% 30.39 in 10.0 mi WSW 5.8 mph - N/A   Clear
5:53 AM -0.0 °F -11.6 °F -8.0 °F 69% 30.40 in 10.0 mi SW 5.8 mph - N/A   Clear
6:53 AM -2.0 °F -15.4 °F -9.9 °F 69% 30.41 in 10.0 mi WSW 6.9 mph - N/A   Clear
7:53 AM -8.0 °F - -14.1 °F 75% 30.40 in 10.0 mi Calm Calm - N/A   Clear
8:53 AM 3.0 °F -10.5 °F -7.1 °F 63% 30.39 in 10.0 mi WSW 8.1 mph - N/A   Clear
9:53 AM 7.0 °F -9.8 °F -5.1 °F 58% 30.37 in 10.0 mi WSW 13.8 mph - N/A   Clear
10:53 AM 10.9 °F -4.7 °F -4.0 °F 51% 30.34 in 10.0 mi West 13.8 mph 20.7 mph N/A   Clear
11:53 AM 14.0 °F -0.2 °F -2.9 °F 47% 30.29 in 10.0 mi West 12.7 mph - N/A   Clear
12:53 PM 16.0 °F 2.9 °F -4.0 °F 41% 30.22 in 10.0 mi West 11.5 mph 23.0 mph N/A   Clear
1:53 PM 17.1 °F 1.5 °F -4.0 °F 39% 30.17 in 10.0 mi WSW 17.3 mph 25.3 mph N/A   Clear
2:53 PM 18.0 °F 4.8 °F -4.0 °F 38% 30.13 in 10.0 mi SW 12.7 mph 23.0 mph N/A   Clear
3:53 PM 17.1 °F 1.0 °F -4.0 °F 39% 30.10 in 10.0 mi SW 18.4 mph 25.3 mph N/A   Scattered Clouds
4:53 PM 17.1 °F 2.0 °F -2.9 °F 41% 30.08 in 10.0 mi SSW 16.1 mph 21.9 mph N/A   Mostly Cloudy
5:53 PM 17.1 °F 3.0 °F -5.1 °F 37% 30.06 in 10.0 mi SW 13.8 mph 24.2 mph N/A   Overcast
6:53 PM 15.1 °F -1.6 °F -4.0 °F 43% 30.04 in 10.0 mi SW 18.4 mph 23.0 mph N/A   Partly Cloudy
7:53 PM 15.1 °F 0.5 °F -5.1 °F 41% 29.98 in 10.0 mi SW 13.8 mph 19.6 mph N/A   Mostly Cloudy
8:53 PM 16.0 °F 1.1 °F -5.1 °F 39% 29.93 in 10.0 mi SW 15.0 mph 23.0 mph N/A   Mostly Cloudy
9:53 PM 17.1 °F 1.5 °F -4.0 °F 39% 29.88 in 10.0 mi SW 17.3 mph 25.3 mph N/A   Mostly Cloudy
10:53 PM 18.0 °F 3.1 °F -6.0 °F 35% 29.85 in 10.0 mi SW 16.1 mph 24.2 mph N/A   Mostly Cloudy
11:53 PM 19.0 °F 3.6 °F -6.0 °F 33% 29.81 in 10.0 mi SW 18.4 mph 24.2 mph N/A   Mostly Cloudy